Location: C�mpuri de-Sus
(45.9500°N, 22.5500°E)
Time: 04:37:44
(UTC+00:00)

Cosmos 371 Rocket - Pass Details

Date: 24 October 2021
Orbit: 684 x 699 km, 74.0° (Epoch: 04 December)

Event Time Altitude Azimuth Distance (km) Brightness Sun altitude
Rises 16:26:02 0° 197° (SSW) 3,055 6.9 -10.7°
Reaches altitude 10° 16:28:20 10° 196° (SSW) 2,145 6.1 -11.1°
Maximum altitude 16:33:10 81° 110° (ESE) 712 3.2 -11.9°
Drops below altitude 10° 16:38:03 10° 24° (NNE) 2,169 5.6 -12.8°
Sets 16:40:23 0° 23° (NNE) 3,092 6.4 -13.2°
